(325934) = 2009 HX11 = 2003 SB184 = 2010 VE29

Discovered at Kitt Peak on 2003-09-21 by Spacewatch.

Orbit

Orbit type: Main Belt

Note: WebGL enabled browser required.

epoch2023-09-13.0
epoch JD2460200.5
perihelion date2023-07-16.14402
perihelion JD2460141.64402
argument of perihelion (°)322.47436
ascending node (°)338.29396
inclination (°)2.13702
eccentricity0.1403733
perihelion distance (AU)1.9374425
Tisserand w.r.t. Jupiter3.6
ΔV w.r.t. Earth (km/sec)8.6
semimajor axis (AU)2.2538183
mean anomaly (°)17.14415
mean daily motion (°/day)0.29129000
aphelion distance (AU)2.570
period (years)3.38
P-vector [x]0.51172460
P-vector [y]-0.77894384
P-vector [z]-0.36246989
Q-vector [x]0.85903884
Q-vector [y]0.45712056
Q-vector [z]0.23041932
absolute magnitude17.61
phase slope0.15
uncertainty0
referenceMPEC 2024-A55
observations used290
oppositions12
arc length (days)7347
first opposition used2003
last opposition used2023
residual rms (arc-secs)0.76
perturbers coarse indicatorM-v
perturbers precise indicator003Ek
first observation date used2003-09-21.0
last observation date used2023-11-01.0
computer nameMPCLINUX
JD of orbit computation2456639.847589
perihelion JD uncertainty (days)1.0720E-04
argument of perihelion uncertainty (°)1.4361E-04
ascending node uncertainty (°)1.3999E-04
inclination uncertainty (°)9.5973E-06
eccentricity uncertainty 7.1791E-08
perihelion distance uncertainty (AU)1.6717E-07
Minimum Orbit Intersection Distances (in AU)
for orbit epoch: 2460200.5, reference: E2024-A34
Mercury1.49209
Venus1.20951
Earth0.92185
Mars0.51526
Jupiter2.61557
Saturn6.51635
Uranus15.9498
Neptune27.5097

Observations

302 total observations over interval: 2003 09 21.38412 – 2023 11 01.90245
These data are available for download (format description).

Date (UT) J2000 RA J2000 Dec Magn Location Ref
2003 09 21.38412 00 52 22.90 +07 41 44.4 20.4 V 691 – Steward Observatory, Kitt Peak-Spacewatch MPS 85545
2003 09 21.41038 00 52 21.38 +07 41 37.8 20.5 V 691 – Steward Observatory, Kitt Peak-Spacewatch MPS 85545
2003 09 21.43688 00 52 19.86 +07 41 31.0 20.4 V 691 – Steward Observatory, Kitt Peak-Spacewatch MPS 85545
2003 09 22.31402 00 51 31.57 +07 37 51.7 19.8 R 699 – Lowell Observatory-LONEOS MPS 85545
2003 09 22.33060 00 51 30.60 +07 37 46.8   699 – Lowell Observatory-LONEOS MPS 85545
2003 09 22.34725 00 51 29.60 +07 37 43.4   699 – Lowell Observatory-LONEOS MPS 85545
2003 09 22.36380 00 51 28.62 +07 37 37.5   699 – Lowell Observatory-LONEOS MPS 85545
2003 09 27.30735 00 46 43.09 +07 15 16.2 20.2 V 691 – Steward Observatory, Kitt Peak-Spacewatch MPS 86332
2003 09 27.33481 00 46 41.37 +07 15 08.3 20.0 V 691 – Steward Observatory, Kitt Peak-Spacewatch MPS 86332
2003 09 27.36537 00 46 39.47 +07 14 59.6 20.1 V 691 – Steward Observatory, Kitt Peak-Spacewatch MPS 86332
2005 03 04.19752 08 41 13.21 +19 18 47.3 20.4 R G96 – Mt. Lemmon Survey MPS 380109
2005 03 04.20281 08 41 13.01 +19 18 47.7 21.3 R G96 – Mt. Lemmon Survey MPS 380109
2005 03 04.20809 08 41 12.78 +19 18 47.9 20.7 R G96 – Mt. Lemmon Survey MPS 380109
2005 03 04.21337 08 41 12.51 +19 18 48.0 20.4 R G96 – Mt. Lemmon Survey MPS 380109
2009 04 16.20292 13 51 30.73 -14 40 32.9 21.4 V H55 – Astronomical Research Observatory, Charleston MPS 284555
2009 04 16.22000 13 51 29.70 -14 40 28.8 21.3 V H55 – Astronomical Research Observatory, Charleston MPS 284555
2009 04 16.23691 13 51 28.51 -14 40 24.2 21.2 V H55 – Astronomical Research Observatory, Charleston MPS 284555
2009 04 17.24423 13 50 26.13 -14 35 50.4 20.5 V H55 – Astronomical Research Observatory, Charleston MPS 284555
2009 04 17.26133 13 50 25.00 -14 35 45.0 20.8 V H55 – Astronomical Research Observatory, Charleston MPS 284555
2009 04 17.27803 13 50 23.97 -14 35 41.3 20.3 V H55 – Astronomical Research Observatory, Charleston MPS 284555
2009 04 19.34894 13 48 15.19 -14 26 06.2 19.9 V G96 – Mt. Lemmon Survey MPS 284555
2009 04 19.35585 13 48 14.76 -14 26 04.3 19.8 V G96 – Mt. Lemmon Survey MPS 284555
2009 04 19.36265 13 48 14.29 -14 26 02.1 19.8 V G96 – Mt. Lemmon Survey MPS 284555
2009 04 19.36932 13 48 13.86 -14 26 00.1 19.6 V G96 – Mt. Lemmon Survey MPS 284555
2009 04 21.97132 13 45 31.38 -14 13 29.7 19.7 V J75 – OAM Observatory, La Sagra MPS 286445
2009 04 21.98433 13 45 30.44 -14 13 24.9 18.8 V J75 – OAM Observatory, La Sagra MPS 286445
2009 04 21.99730 13 45 29.68 -14 13 22.2 19.6 V J75 – OAM Observatory, La Sagra MPS 286445
2010 11 02.41073 03 07 39.75 +21 09 29.8 20.2 V G96 – Mt. Lemmon Survey MPS 355676
2010 11 02.41754 03 07 39.25 +21 09 28.4 20.1 V G96 – Mt. Lemmon Survey MPS 355676
2010 11 02.42450 03 07 38.78 +21 09 26.7 20.2 V G96 – Mt. Lemmon Survey MPS 355676
2010 11 02.43149 03 07 38.28 +21 09 25.1 20.1 V G96 – Mt. Lemmon Survey MPS 355676
2010 11 05.14704 03 04 36.02 +20 58 52.7   691 – Steward Observatory, Kitt Peak-Spacewatch MPS 355676
2010 11 05.16473 03 04 34.80 +20 58 47.8   691 – Steward Observatory, Kitt Peak-Spacewatch MPS 355676
2010 11 05.18242 03 04 33.58 +20 58 43.8   691 – Steward Observatory, Kitt Peak-Spacewatch MPS 355676
2010 11 09.23433 02 59 57.94 +20 41 46.0 20.1 V 703 – Catalina Sky Survey MPS 357595
2010 11 09.23896 02 59 57.62 +20 41 43.0 20.2 V 703 – Catalina Sky Survey MPS 357595
2010 11 09.24355 02 59 57.30 +20 41 43.9 19.8 V 703 – Catalina Sky Survey MPS 357595
2010 11 09.24816 02 59 56.90 +20 41 42.1 19.5 V 703 – Catalina Sky Survey MPS 357595
2010 11 11.31979 02 57 36.61 +20 32 33.0 19.3 V G96 – Mt. Lemmon Survey MPS 357595
2010 11 11.32612 02 57 36.18 +20 32 31.2 19.4 V G96 – Mt. Lemmon Survey MPS 357595
2010 11 11.33250 02 57 35.71 +20 32 29.6 19.5 V G96 – Mt. Lemmon Survey MPS 357595
2010 11 11.33885 02 57 35.28 +20 32 27.9 19.6 V G96 – Mt. Lemmon Survey MPS 357595
2010 11 30.20537 02 39 04.06 +19 06 49.3 21.3 V G96 – Mt. Lemmon Survey MPS 359247
2010 11 30.21252 02 39 03.74 +19 06 48.4 22.2 V G96 – Mt. Lemmon Survey MPS 359247
2010 11 30.21958 02 39 03.34 +19 06 45.2 21.6 V G96 – Mt. Lemmon Survey MPS 359247
2010 11 30.22676 02 39 03.02 +19 06 44.5 20.8 V G96 – Mt. Lemmon Survey MPS 359247
2012 02 23.32990 10 49 44.18 +07 28 08.2 20.8 V G96 – Mt. Lemmon Survey MPS 425965
2012 02 23.33963 10 49 43.57 +07 28 11.3 20.8 V G96 – Mt. Lemmon Survey MPS 425965
2012 02 23.34943 10 49 42.92 +07 28 14.1 20.5 V G96 – Mt. Lemmon Survey MPS 425965
2012 03 02.34255 10 41 28.21 +08 10 27.3 20.5 V G96 – Mt. Lemmon Survey MPS 414289
2012 03 02.34432 10 41 28.14 +08 10 27.6 20.5 V G96 – Mt. Lemmon Survey MPS 414289
2012 03 02.34777 10 41 27.88 +08 10 28.8 20.2 V G96 – Mt. Lemmon Survey MPS 414290
2012 03 02.34952 10 41 27.78 +08 10 28.8 20.2 V G96 – Mt. Lemmon Survey MPS 414290
2012 03 02.35315 10 41 27.52 +08 10 29.8 20.5 V G96 – Mt. Lemmon Survey MPS 414290
2012 03 02.35498 10 41 27.38 +08 10 31.1 20.0 V G96 – Mt. Lemmon Survey MPS 414290
2012 03 02.35848 10 41 27.20 +08 10 32.7 20.9 V G96 – Mt. Lemmon Survey MPS 414290
2012 03 16.31492 10 27 37.444 +09 19 17.46 21.2 w F51 – Pan-STARRS 1, Haleakala MPS 417309
2012 03 16.32921 10 27 36.642 +09 19 21.19 21.3 w F51 – Pan-STARRS 1, Haleakala MPS 417309
2012 03 16.34350 10 27 35.840 +09 19 25.24 21.3 w F51 – Pan-STARRS 1, Haleakala MPS 417309
2012 03 19.33299 10 24 58.738 +09 31 58.72 21.3 w F51 – Pan-STARRS 1, Haleakala MPS 417309
2012 03 19.34696 10 24 58.005 +09 32 02.14 21.3 w F51 – Pan-STARRS 1, Haleakala MPS 417309
2012 03 19.36092 10 24 57.262 +09 32 05.55 21.2 w F51 – Pan-STARRS 1, Haleakala MPS 417309
2012 03 19.37489 10 24 56.515 +09 32 08.82 21.1 w F51 – Pan-STARRS 1, Haleakala MPS 417309
2012 03 29.25703 10 17 43.47 +10 05 22.2 20.5 V G96 – Mt. Lemmon Survey MPS 418552
2012 03 29.26227 10 17 43.26 +10 05 23.0 20.9 V G96 – Mt. Lemmon Survey MPS 418552
2012 03 29.26745 10 17 43.04 +10 05 24.1 20.6 V G96 – Mt. Lemmon Survey MPS 418552
2012 03 29.27267 10 17 42.93 +10 05 25.1 20.4 V G96 – Mt. Lemmon Survey MPS 418552
2013 08 03.31652 23 15 58.04 -05 22 56.9 20.0 r I41 – Palomar Mountain--ZTF MPS 473646
2013 08 03.34170 23 15 57.46 -05 22 57.9 20.3 r I41 – Palomar Mountain--ZTF MPS 473646
2013 08 03.36423 23 15 56.94 -05 22 59.2 20.2 r I41 – Palomar Mountain--ZTF MPS 473646
2013 08 04.31418 23 15 36.36 -05 23 44.6 19.9 r I41 – Palomar Mountain--ZTF MPS 473646
2013 08 04.33782 23 15 35.76 -05 23 46.0 20.1 r I41 – Palomar Mountain--ZTF MPS 473646
2013 08 05.33440 23 15 12.08 -05 24 45.3 20.1 r I41 – Palomar Mountain--ZTF MPS 473646
2013 08 05.35792 23 15 11.42 -05 24 46.8 20.1 r I41 – Palomar Mountain--ZTF MPS 473646
2013 08 14.28697 23 10 15.53 -05 41 27.5 19.7 r I41 – Palomar Mountain--ZTF MPS 474320
2013 08 14.31020 23 10 14.52 -05 41 31.1 19.6 r I41 – Palomar Mountain--ZTF MPS 474320
2013 08 14.35580 23 10 12.52 -05 41 38.2 19.7 r I41 – Palomar Mountain--ZTF MPS 474320
2013 08 15.28455 23 09 33.92 -05 44 06.6 19.5 r I41 – Palomar Mountain--ZTF MPS 474320
2013 08 15.30798 23 09 32.88 -05 44 11.0 19.6 r I41 – Palomar Mountain--ZTF MPS 474320
2013 08 15.35533 23 09 30.72 -05 44 18.4 19.5 r I41 – Palomar Mountain--ZTF MPS 474320
2013 08 28.34961 22 58 33.63 -06 29 27.8 19.2 V G96 – Mt. Lemmon Survey MPS 474847
2013 08 28.35018 22 58 33.57 -06 29 28.4 19.4 V G96 – Mt. Lemmon Survey MPS 474847
2013 08 28.35496 22 58 33.31 -06 29 29.2 19.3 V G96 – Mt. Lemmon Survey MPS 474847
2013 08 28.35554 22 58 33.29 -06 29 29.4 19.4 V G96 – Mt. Lemmon Survey MPS 474847
2013 08 28.36035 22 58 32.98 -06 29 30.4 19.3 V G96 – Mt. Lemmon Survey MPS 474847
2013 08 28.36094 22 58 32.94 -06 29 30.8 19.3 V G96 – Mt. Lemmon Survey MPS 474847
2013 08 28.36569 22 58 32.66 -06 29 31.7 19.3 V G96 – Mt. Lemmon Survey MPS 474847
2013 08 28.36627 22 58 32.63 -06 29 32.0 19.3 V G96 – Mt. Lemmon Survey MPS 474847
2013 09 01.22493 22 54 52.16 -06 45 15.1 19.7 V 703 – Catalina Sky Survey MPS 476084
2013 09 01.23329 22 54 51.57 -06 45 18.6 19.1 V 703 – Catalina Sky Survey MPS 476084
2013 09 01.24169 22 54 51.04 -06 45 19.9 19.7 V 703 – Catalina Sky Survey MPS 476084
2013 09 01.25010 22 54 50.55 -06 45 21.8 19.3 V 703 – Catalina Sky Survey MPS 476084
